Regional Weather Roundup
Issued by NWS

Home | Current Version | Previous Version | Graphics & Text | Print | Product List | Glossary On
Versions: 1 2 3 4 5 6 7 8 9 10 11 12 13 14 15 16 17 18 19 20 21 22 23 24 25 26 27 28 29 30 31 32 33 34 35 36 37 38 39 40 41 42 43 44 45 46 47 48 49 50
000
ASUS43 KOAX 230310
RWRNE

WEATHER ROUNDUP FOR NEBRASKA
NATIONAL WEATHER SERVICE OMAHA NE
1000 PM CDT FRI JUL 22 2016

NOTES: SATELLITE DATA IS BEING USED TO AUGMENT CLOUD COVER ABOVE
       12000 FEET.
       "FAIR" INDICATES FEW OR NO CLOUDS BELOW 12,000 FEET WITH NO
       SIGNIFICANT WEATHER AND/OR OBSTRUCTIONS TO VISIBILITY.

  * THESE STATIONS DO NOT REPORT WEATHER SUCH AS RAIN...SNOW OR FOG.

NEZ001>004-019>022-054>056-230400-
NEBRASKA PANHANDLE

CITY           SKY/WX    TMP DP  RH WIND       PRES   REMARKS
SCOTTSBLUFF    CLOUDY    72  60  66 SE15      30.02R
ALLIANCE       CLOUDY    68  64  87 S9        30.00F
CHADRON        CLOUDY    79  54  41 S14       29.92F
KIMBALL        CLOUDY    72  64  76 E12       30.08S
SIDNEY         CLOUDY    67  61  81 E22G35    30.08R
$$

NEZ057>060-069>072-079>082-230400-
SOUTHWEST NEBRASKA

CITY           SKY/WX    TMP DP  RH WIND       PRES   REMARKS
NORTH PLATTE   CLOUDY    79  73  82 CALM      29.96R
IMPERIAL       CLOUDY    81  67  62 E14       29.94F
LEXINGTON      CLOUDY    79  75  86 CALM      29.93S
MCCOOK         CLOUDY    82  72  71 E8        29.91S
OGALLALA       TSTM      70  64  81 N32G44    30.03R
$$

NEZ005>010-023>029-035>040-094-230400-
NORTH CENTRAL NEBRASKA

CITY           SKY/WX    TMP DP  RH WIND       PRES   REMARKS
VALENTINE      CLOUDY    86  73  65 E15       29.94F HX  93
AINSWORTH      CLOUDY    83  77  82 E10       29.98R HX  92
BROKEN BOW     CLOUDY    79  75  87 CALM      29.95R
O`NEILL        CLOUDY    84  76  76 E8        29.94F HX  93
ORD            CLOUDY    83  78  85 CALM      29.92S HX  93
THEDFORD       CLOUDY    85  75  72 CALM      30.00S HX  92
$$

NEZ041-046>049-061>064-073>077-083>087-230400-
SOUTH CENTRAL NEBRASKA

CITY           SKY/WX    TMP DP  RH WIND       PRES   REMARKS
GRAND ISLAND   PTCLDY    81  72  74 SE3       29.92R
AURORA         CLOUDY    79  77  93 E6        29.92R
HASTINGS       CLOUDY    81  71  71 CALM      29.92S
HEBRON         CLEAR     78  71  77 CALM      29.90S
HOLDREGE       CLOUDY    80  72  76 SE5       29.92S
KEARNEY *      MOCLDY    79  72  78 E7        29.92S
YORK           CLOUDY    77  73  88 CALM      29.92R
$$

NEZ011>018-030>034-042>045-230400-
NORTHEAST NEBRASKA

CITY           SKY/WX    TMP DP  RH WIND       PRES   REMARKS
NORFOLK        PTCLDY    82  76  81 CALM      29.93R
ALBION         MOCLDY    82  75  78 E6        29.93R
BLAIR          CLEAR     84  81  89 E7        29.91S HX  98
FREMONT        CLEAR     84  75  73 CALM      29.91R HX  92
TEKAMAH        CLEAR     84  80  88 E6        29.89S HX  97
WAYNE          PTCLDY    83  80  89 E6        29.93R HX  95
$$

NEZ050>053-065>068-078-088>093-230400-
SOUTHEAST NEBRASKA

CITY           SKY/WX    TMP DP  RH WIND       PRES   REMARKS
LINCOLN        CLEAR     82  71  69 SE7       29.90R
OMAHA EPPLEY   PTCLDY    87  80  79 SE12      29.90R HX 103
BEATRICE       PTCLDY    79  71  76 E3        29.92R
FALLS CITY     PTCLDY    86  80  82 S5        29.93R HX 101
NEBRASKA CITY  PTCLDY    83  83  99 SW7       29.94R THUNDER HX 101
PLATTSMOUTH    PTCLDY    83  82  95 SE6       29.92R HX  99
$$

NEZ044-045-051>053-067-230400-
OMAHA AREA

CITY           SKY/WX    TMP DP  RH WIND       PRES   REMARKS
OMAHA EPPLEY   PTCLDY    87  80  79 SE12      29.90R HX 103
BLAIR          CLEAR     84  81  89 E7        29.91S HX  98
FREMONT        CLEAR     84  75  73 CALM      29.91R HX  92
MILLARD        CLEAR     87  82  85 SE8       29.89R HX 105
OFFUTT AFB     CLEAR     84  81  90 E8        29.89S HX  99
PLATTSMOUTH    PTCLDY    83  82  95 SE6       29.92R HX  99
WAHOO          FAIR      81  77  88 E3        29.90S
$$




USA.gov is the U.S. government's official web portal to all federal, state and local government web resources and services.